User: anonymous   Login
Location: Calvatone
(45.1167°N, 10.4333°E)
Time: 21:59:04
(UTC+00:00)
Language:

Star 26B S/N 006 - Orbit

View from above orbital plane
View from above orbital plane
View from above satellite
View from above satellite

Ground track
Ground track

The orbit data is extracted from the following two-line orbital elements,

1  7219U 74015B   24148.54578525  .00000262  00000-0  12801-3 0  9991
2  7219  98.9803  79.8808 0063275 305.7704  53.7602 14.25634972606476
Epoch (UTC): 27 May 2024 13:05:55
Eccentricity: 0.0063275
inclination: 98.9803°
perigee height: 761 km
apogee height: 852 km
right ascension of ascending node: 79.8808°
argument of perigee: 305.7704°
revolutions per day: 14.25634972
mean anomaly at epoch: 53.7602°
orbit number at epoch: 60647

The dashed part of the orbit path shows where the satellite is in the earth's shadow,  

DLR